Location: Ottawa
(45.4167°N, 75.7000°W)
Time: 05:15:17
(UTC-04:00)

Tiangong 1 - Pass Details

Date: 08 October 2017
Orbit: 293 x 320 km, 42.8° (Epoch: 19 October)

Event Time Altitude Azimuth Distance (km) Brightness Sun altitude
Rises 18:58:38 0° 239° (WSW) 2,038 6.0 -5.9°
Reaches altitude 10° 19:00:44 10° 228° (SW) 1,204 4.4 -6.3°
Maximum altitude 19:03:09 29° 165° (SSE) 602 1.9 -6.7°
Drops below altitude 10° 19:05:32 10° 101° (E) 1,193 2.9 -7.1°
Enters shadow 19:05:37 10° 100° (E) 1,222 3.0 -7.1°
